Weather History for Traverse City, MI

Change the Weather History Date:

Wednesday, May 9, 2012

  Actual Average Record
Temperature  
Mean Temperature 49 °F 51 °F  
Max Temperature 58 °F 64 °F 90 °F (1993)
Min Temperature 40 °F 39 °F 24 °F (1955)
Degree Days  
Heating Degree Days 16 14  
Month to date heating degree days 86 138  
Since 1 July heating degree days 5773 7205  
Cooling Degree Days 0 0  
Month to date cooling degree days 0 0  
Year to date cooling degree days 23 3  
Growing Degree Days 2 (Base 50)    
Moisture  
Dew Point 37 °F    
Average Humidity 61    
Maximum Humidity 86    
Minimum Humidity 36    
Precipitation  
Precipitation 0.00 in 0.08 in 1.10 in (1938)
Month to date precipitation 2.03 0.73  
Year to date precipitation 10.16 9.69  
Sea Level Pressure  
Sea Level Pressure 29.86 in    
Wind  
Wind Speed 9 mph (NNW)    
Max Wind Speed 18 mph    
Max Gust Speed 24 mph    
Visibility 10 miles    
Events      
T = Trace of Precipitation, MM = Missing Value Source: NWS Daily Summary

Daily Weather History Graph

Daily Weather History Graph

Search for Another Location

Airport:

Trip Planner

Search our weather history database for the weather conditions in past years. The results will help you decide how hot, cold, wet, or windy it might be!

Date:

Astronomy

May. 09, 2012 Rise Set
Actual Time 6:20 AM EDT 8:57 PM EDT
Civil Twilight 5:47 AM EDT 9:31 PM EDT
Nautical Twilight 5:05 AM EDT 10:13 PM EDT
Astronomical Twilight 4:17 AM EDT 11:01 PM EDT
Moon 12:09 AM EDT (5/9) 9:32 AM EDT (5/9)
Length of Visible Light 15h 43m
Length of Day
14h 36m
Waning Gibbous, 83% of the Moon is Illuminated
May 9
Waning Gibbous
May 12
Last Quarter
May 20
New
May 28
First Quarter
Jun 4
Full

Hourly Weather History & Observations

Time (EDT) Temp. Windchill Dew Point Humidity Pressure Visibility Wind Dir Wind Speed Gust Speed Precip Events Conditions
12:53 AM 46.9 °F - 43.0 °F 86% 29.82 in 10.0 mi NW 6.9 mph - N/A   Overcast
1:41 AM 46.4 °F 43.5 °F 42.8 °F 87% 29.82 in 10.0 mi West 5.8 mph - N/A   Overcast
1:53 AM 48.0 °F - 43.0 °F 83% 29.82 in 10.0 mi WNW 4.6 mph - N/A   Overcast
2:35 AM 48.2 °F - 42.8 °F 82% 29.81 in 10.0 mi NW 8.1 mph - N/A   Overcast
2:53 AM 46.9 °F - 43.0 °F 86% 29.81 in 10.0 mi NW 6.9 mph - N/A   Overcast
3:53 AM 46.9 °F - 43.0 °F 86% 29.80 in 10.0 mi NW 5.8 mph - N/A   Overcast
4:53 AM 46.9 °F - 42.1 °F 83% 29.80 in 10.0 mi NW 6.9 mph - N/A   Overcast
5:53 AM 46.9 °F - 42.1 °F 83% 29.81 in 10.0 mi WNW 9.2 mph - N/A   Overcast
6:53 AM 46.0 °F 42.5 °F 41.0 °F 83% 29.83 in 10.0 mi NW 6.9 mph - N/A   Overcast
7:53 AM 46.0 °F 41.9 °F 39.9 °F 79% 29.84 in 10.0 mi NW 8.1 mph - N/A   Mostly Cloudy
8:53 AM 46.0 °F 41.4 °F 39.9 °F 79% 29.86 in 10.0 mi NNW 9.2 mph - N/A   Overcast
9:53 AM 46.0 °F 41.4 °F 39.9 °F 79% 29.86 in 10.0 mi North 9.2 mph - N/A   Overcast
10:53 AM 46.9 °F - 41.0 °F 80% 29.87 in 10.0 mi NNW 10.4 mph - N/A   Mostly Cloudy
11:35 AM 50.0 °F - 39.2 °F 66% 29.87 in 10.0 mi NW 10.4 mph - N/A   Mostly Cloudy
11:53 AM 50.0 °F - 39.9 °F 68% 29.88 in 10.0 mi North 9.2 mph 16.1 mph N/A   Scattered Clouds
12:09 PM 51.8 °F - 39.2 °F 62% 29.87 in 10.0 mi NNW 11.5 mph 18.4 mph N/A   Mostly Cloudy
12:53 PM 53.1 °F - 39.0 °F 59% 29.88 in 10.0 mi North 9.2 mph - N/A   Mostly Cloudy
1:23 PM 51.8 °F - 37.4 °F 58% 29.87 in 10.0 mi North 10.4 mph - N/A   Mostly Cloudy
1:53 PM 55.0 °F - 37.9 °F 53% 29.88 in 10.0 mi North 13.8 mph 18.4 mph N/A   Mostly Cloudy
2:53 PM 55.9 °F - 35.1 °F 45% 29.88 in 10.0 mi NNW 13.8 mph 20.7 mph N/A   Mostly Cloudy
3:53 PM 57.0 °F - 32.0 °F 39% 29.88 in 10.0 mi NNW 15.0 mph 21.9 mph N/A   Scattered Clouds
4:53 PM 57.2 °F - 30.2 °F 36% 29.87 in 10.0 mi NNW 15.0 mph 24.2 mph N/A   Partly Cloudy
5:53 PM 57.0 °F - 32.0 °F 39% 29.88 in 10.0 mi North 10.4 mph - N/A   Partly Cloudy
6:53 PM 55.9 °F - 30.0 °F 37% 29.88 in 10.0 mi NNW 11.5 mph - N/A   Clear
7:53 PM 54.0 °F - 28.9 °F 38% 29.88 in 10.0 mi North 9.2 mph - N/A   Clear
8:53 PM 51.1 °F - 28.0 °F 41% 29.89 in 10.0 mi North 4.6 mph - N/A   Clear
9:53 PM 48.0 °F - 30.0 °F 50% 29.91 in 10.0 mi WNW 5.8 mph - N/A   Clear
10:53 PM 46.9 °F - 30.0 °F 52% 29.92 in 10.0 mi NW 6.9 mph - N/A   Clear
11:53 PM 45.0 °F 41.8 °F 33.1 °F 63% 29.92 in 10.0 mi NW 5.8 mph - N/A   Clear